Hundvaag 1 weather for Feb 1991
Month no. 44
Obs.
Da.
Temp. Dew Point Precip. Wind
Speed
Wind gusts Cloud cover Press. Humidity Wind dir. Sunny OPT
01.02.1991 -5,5   0,0             1  
02.02.1991 -4,7   0,0             1  
03.02.1991 -3,3   0,0             1  
04.02.1991 -5,3   0,0             1  
05.02.1991 -3,0   0,0             1  
06.02.1991 -2,2   0,0             1  
07.02.1991 -6,5   0,0             1  
08.02.1991 -5,6   0,0                
09.02.1991 -3,4   0,0             1  
10.02.1991 -1,9   0,0             1  
11.02.1991 -4,3   0,0                
12.02.1991 -4,5   0,0                
13.02.1991 -7,5   5,0             1  
14.02.1991 -9,0   0,0             1  
15.02.1991 -0,6   6,0                
16.02.1991 0,0   6,1             1  
17.02.1991 0,2   1,8                
18.02.1991 -3,6   1,0                
19.02.1991 1,5   2,0                
20.02.1991 3,2   9,7                
21.02.1991 2,0   4,5             1  
22.02.1991 4,1   1,4             1  
23.02.1991 6,2   16,0                
24.02.1991 5,5   3,8                
25.02.1991 4,4   7,2             1  
26.02.1991 -1,5   0,0             1  
27.02.1991 0,2   0,0             1  
28.02.1991 -3,3   0,0             1  
                       
                       
                       
Avrg/Sum -1,7   64,5             18